Weather History for KRCA - February, 2014

Change the Weather History Date:

Wednesday, February 19, 2014

  Actual Average Record
Temperature  
Mean Temperature 44 °F -  
Max Temperature 59 °F 39 °F 59 °F (2014)
Min Temperature 28 °F 18 °F 10 °F (2013)
Degree Days  
Heating Degree Days 22    
Moisture  
Dew Point 21 °F    
Average Humidity 51    
Maximum Humidity 70    
Minimum Humidity 23    
Precipitation  
Precipitation 0.00 in - - ()
Sea Level Pressure  
Sea Level Pressure 29.59 in    
Wind  
Wind Speed 14 mph (WNW)    
Max Wind Speed 40 mph    
Max Gust Speed 52 mph    
Visibility 10 miles    
Events      
Averages and records for this station are not official NWS values.
T = Trace of Precipitation, MM = Missing Value Source: NWS Daily Summary

Daily Weather History Graph

Daily Weather History Graph

Search for Another Location

Airport or City:

Trip Planner

Search our weather history database for the weather conditions in past years. The results will help you decide how hot, cold, wet, or windy it might be!

Date:

Astronomy

Feb. 19, 2014 Rise Set
Actual Time 6:45 AM MST 5:27 PM MST
Civil Twilight 6:16 AM MST 5:56 PM MST
Nautical Twilight 5:42 AM MST 6:30 PM MST
Astronomical Twilight 5:09 AM MST 7:04 PM MST
Moon 10:35 PM MST (2/19) 8:41 AM MST (2/19)
Length of Visible Light 11h 40m
Length of Day
10h 41m
Waning Gibbous, 79% of the Moon is Illuminated
Feb 19
Waning Gibbous
Feb 22
Last Quarter
Mar 1
New
Mar 8
First Quarter
Mar 16
Full

Hourly Weather History & Observations

Time (MST) Temp. Windchill Dew Point Humidity Pressure Visibility Wind Dir Wind Speed Gust Speed Precip Events Conditions
12:58 AM 28.8 °F 20.2 °F 17.6 °F 63% 29.81 in 10.0 mi South 9.2 mph - N/A   Clear
1:58 AM 28.8 °F 19.0 °F 16.3 °F 60% 29.78 in 10.0 mi South 11.5 mph - N/A   Clear
2:58 AM 28.8 °F 20.9 °F 16.7 °F 61% 29.74 in 10.0 mi South 8.1 mph - N/A   Clear
3:58 AM 32.5 °F 23.2 °F 17.2 °F 53% 29.69 in 10.0 mi South 12.7 mph - N/A   Mostly Cloudy
4:58 AM 30.9 °F 23.5 °F 19.0 °F 61% 29.67 in 10.0 mi South 8.1 mph - N/A   Scattered Clouds
5:58 AM 31.5 °F - 18.5 °F 59% 29.62 in 10.0 mi Variable 1.2 mph - N/A   Scattered Clouds
6:58 AM 29.8 °F - 18.5 °F 63% 29.62 in 10.0 mi Calm Calm - N/A   Clear
7:58 AM 31.5 °F - 20.8 °F 65% 29.60 in 10.0 mi Calm Calm - N/A   Mostly Cloudy
8:58 AM 37.2 °F 33.6 °F 22.1 °F 54% 29.57 in 10.0 mi South 4.6 mph - N/A   Mostly Cloudy
9:58 AM 40.6 °F 35.4 °F 23.4 °F 50% 29.54 in 10.0 mi SE 8.1 mph - N/A   Overcast
10:47 AM 44.6 °F 38.4 °F 24.8 °F 46% 29.45 in 10.0 mi South 12.7 mph - N/A   Mostly Cloudy
10:56 AM 44.6 °F 39.7 °F 23.0 °F 43% 29.45 in 10.0 mi South 9.2 mph - N/A   Scattered Clouds
10:58 AM 44.6 °F 39.7 °F 23.0 °F 43% 29.50 in 10.0 mi South 9.2 mph - 0.00 in   Scattered Clouds
11:58 AM 52.7 °F - 25.3 °F 35% 29.44 in 10.0 mi South 15.0 mph - 0.00 in   Clear
12:58 PM 58.3 °F - 21.9 °F 25% 29.41 in 10.0 mi South 9.2 mph - N/A   Scattered Clouds
1:27 PM 59.0 °F - 21.2 °F 23% 29.40 in 10.0 mi WNW 26.5 mph 35.7 mph N/A   Overcast
1:28 PM 57.2 °F - 23.0 °F 27% 29.39 in 10.0 mi NNW 38.0 mph - N/A   Squalls
1:58 PM 46.9 °F - 28.0 °F 48% 29.49 in 10.0 mi NNW 36.8 mph 48.3 mph N/A   Overcast
2:35 PM 42.8 °F 30.8 °F 32.0 °F 66% 29.47 in 10.0 mi NNW 40.3 mph 51.8 mph N/A   Mostly Cloudy
2:46 PM 41.0 °F 28.8 °F 28.4 °F 61% 29.48 in 10.0 mi NNW 36.8 mph 51.8 mph N/A   Mostly Cloudy
2:48 PM 41.0 °F 28.5 °F 28.4 °F 61% 29.48 in 10.0 mi NNW 39.1 mph 51.8 mph N/A   Mostly Cloudy
2:58 PM 40.8 °F 28.9 °F 29.1 °F 63% 29.55 in 10.0 mi NNW 34.5 mph 43.7 mph N/A   Scattered Clouds
3:58 PM 38.5 °F 26.6 °F 29.3 °F 70% 29.60 in 10.0 mi NNW 28.8 mph 41.4 mph N/A   Mostly Cloudy
4:58 PM 36.9 °F 24.7 °F 26.4 °F 66% 29.61 in 10.0 mi NNW 27.6 mph 38.0 mph N/A   Overcast
5:58 PM 36.9 °F 27.5 °F 20.5 °F 52% 29.65 in 10.0 mi NW 16.1 mph - N/A   Overcast
6:58 PM 36.0 °F 26.7 °F 20.3 °F 53% 29.68 in 10.0 mi NNW 15.0 mph - N/A   Overcast
7:58 PM 36.3 °F 27.5 °F 14.5 °F 41% 29.70 in 10.0 mi NNW 13.8 mph - N/A   Overcast
8:58 PM 34.7 °F 29.6 °F 13.8 °F 42% 29.73 in 10.0 mi NW 5.8 mph - N/A   Overcast
9:58 PM 35.8 °F 26.9 °F 9.0 °F 33% 29.70 in 10.0 mi NW 13.8 mph - N/A   Mostly Cloudy
10:58 PM 30.9 °F 21.7 °F 12.4 °F 46% 29.72 in 10.0 mi NNW 11.5 mph - N/A   Partly Cloudy
11:58 PM 28.6 °F 19.3 °F 13.3 °F 53% 29.73 in 10.0 mi WNW 10.4 mph - N/A   Partly Cloudy